This is the latest recevied weather packets stored in our database for station/object KE3HG-2. If no packets are shown the sender has not sent any weather packets the latest 10 day(s).
| Time | Temp. | Humidity | Pressure | Rain* | Wind** | Luminosity | Snow |
|---|---|---|---|---|---|---|---|
| 1778176251 | 17.22° C | 28% | 757.5 hPa | 0 mm | - | - | - |
| 1778175651 | 16.67° C | 29% | 757.5 hPa | 0 mm | - | - | - |
| 1778174650 | 16.67° C | 30% | 757.5 hPa | 0 mm | - | - | - |
| 1778174050 | 16.11° C | 30% | 757.5 hPa | 0 mm | - | - | - |
| 1778173450 | 16.67° C | 30% | 757.5 hPa | 0 mm | - | - | - |
| 1778172451 | 16.11° C | 32% | 757.5 hPa | 0.25 mm | - | - | - |
| 1778171850 | 15.56° C | 38% | 757.5 hPa | 0.25 mm | - | - | - |
| 1778171251 | 15.56° C | 36% | 757.5 hPa | 0.25 mm | - | - | - |
| 1778170250 | 15° C | 34% | 757.5 hPa | 0.25 mm | - | - | - |
| 1778169652 | 15° C | 37% | 757.5 hPa | 0.25 mm | - | - | - |
| 1778169050 | 15° C | 39% | 757.5 hPa | 0.51 mm | - | - | - |
| 1778168053 | 14.44° C | 36% | 757.5 hPa | 0.25 mm | - | - | - |
| 1778167453 | 14.44° C | 38% | 757.5 hPa | 0.25 mm | - | - | - |
| 1778166853 | 13.89° C | 38% | 757.5 hPa | 0.25 mm | - | - | - |
| 1778165848 | 13.89° C | 44% | 757.5 hPa | 0.25 mm | - | - | - |
| 1778165248 | 13.33° C | 49% | 757.5 hPa | 0 mm | - | - | - |
| 1778164648 | 12.78° C | 50% | 757.5 hPa | 0.25 mm | - | - | - |
| 1778163651 | 12.78° C | 51% | 757.5 hPa | 0.25 mm | - | - | - |
| 1778163052 | 12.78° C | 51% | 757.5 hPa | 0.25 mm | - | - | - |
| 1778162452 | 12.22° C | 53% | 757.5 hPa | 0.25 mm | - | - | - |
| 1778161453 | 11.67° C | 52% | 757.5 hPa | 0.51 mm | - | - | - |
| 1778160852 | 11.67° C | 54% | 757.5 hPa | 0.25 mm | - | - | - |
| 1778160252 | 11.67° C | 56% | 757.5 hPa | 0.25 mm | - | - | - |
| 1778159251 | 11.11° C | 57% | 757.5 hPa | 0.25 mm | - | - | - |
| 1778158651 | 11.11° C | 58% | 757.5 hPa | 0.25 mm | - | - | - |
* Rain latest hour (hover to see other rain measurements)
** Current wind speed in m/s (hover to see current wind gust speed)